Погода в Варзуге

Погода в Варзуге : погода сейчас, прогноз погоды и архив. Всё, что Вы хотите узнать о погоде в Варзуге!

Поиск расширенной информации на нашем сайте:

Другие новости

Новости СМИ2

Главная страница сайта

Новости сайта

03.07.2017

Напоминаем, что на нашем специализированном сайте Метеоцентр.Азия вы можете получить высокодетализированные автоматические прогнозы погоды по пунктам России, СНГ и мира в авиационном формате (включающие направление и скорость ветра, видимость, явления погоды, количество и форму облачности, нижнюю и верхнюю границу облачности).

Рекомендуем: предлагаем помещения: купить офис в БЦ Школа Журналистов у метро Тверская

Погода в Варзуге - сегодня

Время (UTC), дата Ветер
(°,м/с) 
Видим.   Явления Облачность Т
(°С)
Тd
(°С)
f(%) Тe
(°С)
Pmin
(гПа)
dP
(гПа)
Po
(мм)
O2
(г/м3)
Тmin Tmax R s Состояние
почвы
00 18.07.17 110 (В) 5-7{10}  н/о    н/о 
+14.8 +13.3 91 +20  1002.1  -0.2  751  284           
03 18.07.17 120 (ЮВ) 5-6  н/о    н/о 
+14.1 +13.6 97 +20  1002.1  751  285  +13.9         
06 18.07.17 190 (Ю) 6-7{10}  20000 м    8/6 300 м кучево-дожд., средняя 
[Cb cap|Ac trans]
+14.3 +13.4 94 +20  1002.9  0.9  752  285  +13.8      влажная 
09 18.07.17 150 (ЮВ) 6-7  н/о    н/о 
+14.3 +13.5 95 +20  1004.3  1.3  753  285           
12 18.07.17 160 (Ю) 6-7  н/о    н/о 
+15.3 +13.9 91 +22  1004.5  0.2  753  284           
15 18.07.17 120 (ЮВ) 4-6  н/о    н/о 
+15 +13.6 91 +21  1005.1  0.6  753  285           
18 18.07.17 110 (В) 4-6  20000 м    ясно 
+14.6 +13.6 94 +20  1006.1  1.1  754  286    +15.8       
21 18.07.17 110 (В) 5-7  н/о    н/о 
+14.1 +13.1 94 +19  1006.4  0.3  754  286           
00 19.07.17 070 (В) 3-3  н/о    н/о 
+10.4 +10 97 +11  1006.7  0.3  755  291           
03 19.07.17 100 (В) 3-4  н/о    н/о 
+14.1 +13.3 95 +20  1007.4  0.7  755  287  +10.3         
06 19.07.17 120 (ЮВ) 3-4  20000 м    9/9 600 м 
[Sc]
+14.7 +13.7 94 +21  1008.1  0.6  756  286  +10.3        влажная 
09 19.07.17 160 (Ю) 2-2  н/о    н/о 
+16.2 +14.2 88 +24  1008.8  0.7  756  285           
12 19.07.17 210 (ЮЗ) 2-3  н/о    н/о 
+16.7 +13.2 80 +24  1009  0.3  756  285           
15 19.07.17 240 (ЮЗ) 2-2  н/о    н/о 
+16.7 +13.5 81 +24  1008.9  -0.2  756  284           
18 19.07.17 280 (З) 2-3  20000 м    9/0 верхняя 
[Ci fib]
+15.8 +13.4 86 +23  1009.4  0.5  757  285    +17.1       
21 19.07.17 020 (С) 1-2  н/о    н/о 
+9.1 +8.7 97 +10  1009  -0.4  756  293           
00 20.07.17 010 (С) 3-4  н/о    н/о 
+9.2 +9.1 99 +9  1008.9  0.1  756  293           
03 20.07.17 030 (СВ) 7-9{10}  н/о    н/о 
+13.5 +11.9 90 +16  1008.4  -0.5  756  288  +8         
06 20.07.17 050 (СВ) 7-11{12}  10 км    10/10 300 м кучево-дожд. 
[Cb cap]
+13.5 +11.7 89 +15  1009.1  0.8  756  288  +8    0.1    влажная 
09 20.07.17 040 (СВ) 6-9{12}  н/о    н/о 
+14.3 +12.8 91 +19  1009.5  0.3  757  287           
12 20.07.17 030 (СВ) 7-10{10}  н/о    н/о 
+13.6 +12.1 91 +16  1009.9  0.4  757  288           
15 20.07.17 020 (С) 7-10{10}  н/о    н/о 
+13.4 +11 85 +14  1010.4  0.5  757  289           
18 20.07.17 030 (СВ) 8-12{12}  20000 м    10/10 600 м кучево-дожд. 
[Cb cap]
+11.5 +9.4 87 +10  1011.5  1.1  758  291    +15.5     
21 20.07.17 020 (С) 6-9{12}  н/о    н/о 
+10.4 +8.9 90 +9  1012  0.5  758  293           
00 21.07.17 020 (С) 7-10{11}  н/о    н/о 
+9.7 +8.7 93 +8  1011.9  0.1  758  294           
Время (UTC), дата Ветер
(°,м/с) 
Видим.   Явления Облачность Т
(°С)
Тd
(°С)
f(%) Тe
(°С)
Pmin
(гПа)
dP
(гПа)
Po
(мм)
O2
(г/м3)
Тmin Tmax R s Состояние
почвы

Для получения пояснительной информации подведите курсор к названию столбца.

ПОГОДА в Варзуге - архив

Всё, что Вы хотите узнать о погоде в Варзуге - удобно и подробно!

Выберите нужную дату (начиная с 1 января 2015* года) и нажмите кнопку "Найти".
Будут отображены архивные сводки погоды по пункту Варзуга, начиная с указанной даты.


Отображать данные в формате CSV (для использования в таблицах Excel)


Внимание! Наш архив погоды предназначен исключительно для личного некоммерческого использования в познавательных целях. Если Вам необходимы официальные справки о состоянии погоды (для производственных, юридических, коммерческих и т.п. целей), обращайтесь в органы Росгидромета.

*Примечание: данная дата относится к архиву по метеостанциям СССР (Россия, СНГ, Балтия).
Архив по метеостанциям Зарубежной Европы и Азии (кроме Китая) хранится 10 дней, по другим регионам земного шара (Китай, Африка, Америка, Австралия, Океания) - 1 день.

Варзуга - район местоположения метеостанции


Название, широта, долгота, высота метеостанции:
Варзуга 66.4°ш. 36.6°д. 6 м над ур. моря [Российская Федерация]

Дополнительная информация

В oтличие oт бoльшинства пoгoдных сайтoв мы публикуем пoдрoбную метеoинфoрмацию в детальнoм прoфессиoнальнoм фoрмате.

Характеристики температуры и влажнoсти вoздуха измеряются на высoте 2 м в тени вдали oт зданий и деревьев.
Скoрoсть ветра измеряется на высoте 10 м (на урoвне рoста челoвека скoрoсть ветра ниже в 1.5-2 раза). Если метеoстанция нахoдится в гoрoде или в лесу, тo скoрoсть ветра занижена на 2-4 м/с пo сравнению с oткрытым местoм. Скoрoсть ветра над акватoриями крупных рек и oзёр, а также на вершинах хoлмoв на 2-5 м/с выше, чем в oбычных услoвиях.
Атмoсфернoе давление в разных тoчках местнoсти мoжет значительнo oтличаться oт давления на метеoстанции, в зависимoсти oт услoвий рельефа (при пoдъёме на 10 м давление пoнижается примернo на 1 мм рт.ст.).